Time,TemperatureF,DewpointF,PressureIn,WindDirection,WindDirectionDegrees,WindSpeedMPH,WindSpeedGustMPH,Humidity,HourlyPrecipIn,Conditions,Clouds,dailyrainin,SolarRadiationWatts/m^2,SoftwareType,DateUTC
2013-05-17 00:01:00,48.6,20.1,30.01,SSE,157,0.0,0.0,32,0.00,,,0.00,0,LWC V2.00 B727,2013-05-17 06:01:00,
2013-05-17 00:06:00,48.4,21.3,30.01,SSE,157,0.0,1.0,34,0.00,,,0.00,0,LWC V2.00 B727,2013-05-17 06:06:00,
2013-05-17 00:11:00,48.1,21.8,30.02,SSE,157,0.0,0.0,35,0.00,,,0.00,0,LWC V2.00 B727,2013-05-17 06:11:00,
2013-05-17 00:16:00,47.7,20.7,30.02,SSE,157,0.0,1.0,34,0.00,,,0.00,0,LWC V2.00 B727,2013-05-17 06:16:00,
2013-05-17 00:21:00,47.2,20.3,30.02,SSE,157,0.0,1.0,34,0.00,,,0.00,0,LWC V2.00 B727,2013-05-17 06:21:00,
2013-05-17 00:26:00,46.8,19.9,30.02,SSE,157,0.0,1.0,34,0.00,,,0.00,0,LWC V2.00 B727,2013-05-17 06:26:00,
2013-05-17 00:31:00,46.6,20.4,30.02,SSE,156,0.0,0.0,35,0.00,,,0.00,0,LWC V2.00 B727,2013-05-17 06:31:00,
2013-05-17 00:36:00,46.1,20.6,30.02,SSE,156,0.0,0.0,36,0.00,,,0.00,0,LWC V2.00 B727,2013-05-17 06:36:00,
2013-05-17 00:41:00,45.7,20.9,30.02,SSE,157,0.0,0.0,37,0.00,,,0.00,0,LWC V2.00 B727,2013-05-17 06:41:00,
2013-05-17 00:46:00,45.3,20.6,30.02,SSE,157,0.0,0.0,37,0.00,,,0.00,0,LWC V2.00 B727,2013-05-17 06:46:00,
2013-05-17 00:51:00,44.7,20.7,30.02,SSE,156,0.0,0.0,38,0.00,,,0.00,0,LWC V2.00 B727,2013-05-17 06:51:00,
2013-05-17 00:56:00,44.1,21.3,30.02,SSE,157,0.0,0.0,40,0.00,,,0.00,0,LWC V2.00 B727,2013-05-17 06:56:00,
2013-05-17 01:01:00,43.6,20.9,30.02,SSE,156,0.0,0.0,40,0.00,,,0.00,0,LWC V2.00 B727,2013-05-17 07:01:00,
2013-05-17 01:06:00,43.0,22.1,30.02,SSE,156,0.0,0.0,43,0.00,,,0.00,0,LWC V2.00 B727,2013-05-17 07:06:00,
2013-05-17 01:11:00,42.4,21.5,30.02,SSE,156,0.0,0.0,43,0.00,,,0.00,0,LWC V2.00 B727,2013-05-17 07:11:00,
2013-05-17 01:16:00,42.0,22.2,30.02,SSE,157,0.0,0.0,45,0.00,,,0.00,0,LWC V2.00 B727,2013-05-17 07:16:00,
2013-05-17 01:21:00,41.5,21.8,30.02,SSE,157,0.0,0.0,45,0.00,,,0.00,0,LWC V2.00 B727,2013-05-17 07:21:00,
2013-05-17 01:26:00,41.1,22.4,30.02,SSE,156,0.0,0.0,47,0.00,,,0.00,0,LWC V2.00 B727,2013-05-17 07:26:00,
2013-05-17 01:31:00,40.7,21.0,30.02,SSE,157,0.0,0.0,45,0.00,,,0.00,0,LWC V2.00 B727,2013-05-17 07:31:00,
2013-05-17 01:36:00,40.5,20.9,30.02,SSE,156,0.0,0.0,45,0.00,,,0.00,0,LWC V2.00 B727,2013-05-17 07:36:00,
2013-05-17 01:41:00,40.2,20.6,30.02,SSE,156,0.0,0.0,45,0.00,,,0.00,0,LWC V2.00 B727,2013-05-17 07:41:00,
2013-05-17 01:46:00,40.0,20.4,30.02,SSE,156,0.0,0.0,45,0.00,,,0.00,0,LWC V2.00 B727,2013-05-17 07:46:00,
2013-05-17 01:51:00,39.9,19.2,30.02,SSE,157,0.0,1.0,43,0.00,,,0.00,0,LWC V2.00 B727,2013-05-17 07:51:00,
2013-05-17 01:56:00,39.9,19.8,30.02,SSE,157,0.0,0.0,44,0.00,,,0.00,0,LWC V2.00 B727,2013-05-17 07:56:00,
2013-05-17 02:01:00,40.1,20.0,30.03,SSE,157,0.0,0.0,44,0.00,,,0.00,0,LWC V2.00 B727,2013-05-17 08:01:00,
2013-05-17 02:06:00,40.6,19.3,30.03,SSE,157,0.0,0.0,42,0.00,,,0.00,0,LWC V2.00 B727,2013-05-17 08:06:00,
2013-05-17 02:11:00,41.2,18.7,30.03,SSE,157,2.0,2.0,40,0.00,,,0.00,0,LWC V2.00 B727,2013-05-17 08:11:00,
2013-05-17 02:16:00,42.2,19.0,30.03,SSE,157,0.0,2.0,39,0.00,,,0.00,0,LWC V2.00 B727,2013-05-17 08:16:00,
2013-05-17 02:21:00,43.1,19.2,30.03,SSE,160,1.0,1.0,38,0.00,,,0.00,0,LWC V2.00 B727,2013-05-17 08:21:00,
2013-05-17 02:26:00,43.6,19.7,30.03,SSE,159,1.0,2.0,38,0.00,,,0.00,0,LWC V2.00 B727,2013-05-17 08:26:00,
2013-05-17 02:31:00,43.8,19.9,30.03,SSE,159,1.0,2.0,38,0.00,,,0.00,0,LWC V2.00 B727,2013-05-17 08:31:00,
2013-05-17 02:36:00,44.1,19.5,30.03,SSE,159,1.0,3.0,37,0.00,,,0.00,0,LWC V2.00 B727,2013-05-17 08:36:00,
2013-05-17 02:41:00,44.3,19.7,30.04,SSE,159,1.0,3.0,37,0.00,,,0.00,0,LWC V2.00 B727,2013-05-17 08:41:00,
2013-05-17 02:46:00,44.6,20.0,30.04,SSE,153,0.0,3.0,37,0.00,,,0.00,0,LWC V2.00 B727,2013-05-17 08:46:00,
2013-05-17 02:51:00,44.8,19.5,30.04,SSE,155,2.0,4.0,36,0.00,,,0.00,0,LWC V2.00 B727,2013-05-17 08:51:00,
2013-05-17 02:56:00,45.0,19.7,30.04,SSE,156,2.0,4.0,36,0.00,,,0.00,0,LWC V2.00 B727,2013-05-17 08:56:00,
2013-05-17 03:01:00,45.1,19.8,30.04,SSE,157,1.0,3.0,36,0.00,,,0.00,0,LWC V2.00 B727,2013-05-17 09:01:00,
2013-05-17 03:06:00,45.2,19.8,30.04,SSE,162,1.0,3.0,36,0.00,,,0.00,0,LWC V2.00 B727,2013-05-17 09:06:00,
2013-05-17 03:11:00,45.3,19.9,30.05,SSE,168,1.0,4.0,36,0.00,,,0.00,0,LWC V2.00 B727,2013-05-17 09:11:00,
2013-05-17 03:16:00,45.3,19.9,30.05,SSE,165,0.0,2.0,36,0.00,,,0.00,0,LWC V2.00 B727,2013-05-17 09:16:00,
2013-05-17 03:21:00,45.2,19.8,30.05,SSE,148,0.0,3.0,36,0.00,,,0.00,0,LWC V2.00 B727,2013-05-17 09:21:00,
2013-05-17 03:26:00,45.1,19.8,30.05,SSE,160,1.0,3.0,36,0.00,,,0.00,0,LWC V2.00 B727,2013-05-17 09:26:00,
2013-05-17 03:31:00,45.0,19.7,30.05,SSE,152,1.0,2.0,36,0.00,,,0.00,0,LWC V2.00 B727,2013-05-17 09:31:00,
2013-05-17 03:36:00,45.0,19.7,30.05,SSE,153,0.0,1.0,36,0.00,,,0.00,0,LWC V2.00 B727,2013-05-17 09:36:00,
2013-05-17 03:41:00,45.0,19.7,30.05,SSE,153,1.0,2.0,36,0.00,,,0.00,0,LWC V2.00 B727,2013-05-17 09:41:00,
2013-05-17 03:46:00,44.9,19.6,30.06,SSE,155,2.0,3.0,36,0.00,,,0.00,0,LWC V2.00 B727,2013-05-17 09:46:00,
2013-05-17 03:51:00,44.8,19.5,30.06,SSE,156,2.0,3.0,36,0.00,,,0.00,0,LWC V2.00 B727,2013-05-17 09:51:00,
2013-05-17 03:56:00,44.7,19.4,30.06,SSE,156,0.0,2.0,36,0.00,,,0.00,0,LWC V2.00 B727,2013-05-17 09:56:00,
2013-05-17 04:01:00,44.5,19.2,30.06,SSE,156,0.0,0.0,36,0.00,,,0.00,0,LWC V2.00 B727,2013-05-17 10:01:00,
2013-05-17 04:06:00,44.4,19.1,30.06,SSE,157,1.0,3.0,36,0.00,,,0.00,0,LWC V2.00 B727,2013-05-17 10:06:00,
2013-05-17 04:11:00,44.2,19.6,30.06,SSE,157,0.0,1.0,37,0.00,,,0.00,0,LWC V2.00 B727,2013-05-17 10:11:00,
2013-05-17 04:16:00,44.1,19.5,30.06,SSE,157,0.0,1.0,37,0.00,,,0.00,0,LWC V2.00 B727,2013-05-17 10:16:00,
2013-05-17 04:21:00,44.0,20.0,30.06,SSE,157,0.0,0.0,38,0.00,,,0.00,0,LWC V2.00 B727,2013-05-17 10:21:00,
2013-05-17 04:26:00,43.7,19.8,30.06,SSE,157,0.0,0.0,38,0.00,,,0.00,0,LWC V2.00 B727,2013-05-17 10:26:00,
2013-05-17 04:31:00,43.4,20.1,30.06,SSE,157,0.0,1.0,39,0.00,,,0.00,0,LWC V2.00 B727,2013-05-17 10:31:00,
2013-05-17 04:36:00,43.1,19.2,30.06,SSE,159,1.0,3.0,38,0.00,,,0.00,0,LWC V2.00 B727,2013-05-17 10:36:00,
2013-05-17 04:41:00,43.0,19.1,30.06,SSE,159,2.0,2.0,38,0.00,,,0.00,0,LWC V2.00 B727,2013-05-17 10:41:00,
2013-05-17 04:46:00,42.9,19.7,30.07,South,180,3.0,4.0,39,0.00,,,0.00,0,LWC V2.00 B727,2013-05-17 10:46:00,
2013-05-17 04:51:00,43.1,19.2,30.07,SSE,167,2.0,2.0,38,0.00,,,0.00,0,LWC V2.00 B727,2013-05-17 10:51:00,
2013-05-17 04:55:00,43.2,19.3,30.07,South,173,3.0,3.0,38,0.00,,,0.00,0,LWC V2.00 B727,2013-05-17 10:55:00,
2013-05-17 05:00:00,43.4,19.5,30.07,South,171,1.0,3.0,38,0.00,,,0.00,0,LWC V2.00 B727,2013-05-17 11:00:00,
2013-05-17 05:05:00,43.4,19.5,30.07,South,174,0.0,2.0,38,0.00,,,0.00,0,LWC V2.00 B727,2013-05-17 11:05:00,
2013-05-17 05:10:00,43.3,19.4,30.07,South,172,1.0,2.0,38,0.00,,,0.00,0,LWC V2.00 B727,2013-05-17 11:10:00,
2013-05-17 05:15:00,43.3,19.4,30.07,South,171,2.0,3.0,38,0.00,,,0.00,0,LWC V2.00 B727,2013-05-17 11:15:00,
2013-05-17 05:20:00,43.2,19.9,30.07,SSE,167,2.0,3.0,39,0.00,,,0.00,0,LWC V2.00 B727,2013-05-17 11:20:00,
2013-05-17 05:25:00,43.0,19.8,30.07,SSE,168,3.0,3.0,39,0.00,,,0.00,0,LWC V2.00 B727,2013-05-17 11:25:00,
2013-05-17 05:30:00,42.9,19.7,30.07,SSE,167,0.0,1.0,39,0.00,,,0.00,0,LWC V2.00 B727,2013-05-17 11:30:00,
2013-05-17 05:35:00,42.9,20.8,30.07,SSE,167,1.0,1.0,41,0.00,,,0.00,0,LWC V2.00 B727,2013-05-17 11:35:00,
2013-05-17 05:40:00,42.6,20.6,30.07,SSE,153,1.0,3.0,41,0.00,,,0.00,0,LWC V2.00 B727,2013-05-17 11:40:00,
2013-05-17 05:45:00,42.3,19.7,30.07,SSE,153,0.0,2.0,40,0.00,,,0.00,0,LWC V2.00 B727,2013-05-17 11:45:00,
2013-05-17 05:50:00,42.2,20.2,30.08,SE,131,2.0,3.0,41,0.00,,,0.00,0,LWC V2.00 B727,2013-05-17 11:50:00,
2013-05-17 05:55:00,42.2,20.2,30.08,SSE,157,1.0,3.0,41,0.00,,,0.00,0,LWC V2.00 B727,2013-05-17 11:55:00,
2013-05-17 06:00:00,42.2,19.6,30.08,SSE,161,1.0,2.0,40,0.00,,,0.00,7,LWC V2.00 B727,2013-05-17 12:00:00,
2013-05-17 06:05:00,42.4,20.4,30.08,SSE,150,0.0,1.0,41,0.00,,,0.00,9,LWC V2.00 B727,2013-05-17 12:05:00,
2013-05-17 06:10:00,42.2,20.8,30.08,SSE,157,1.0,3.0,42,0.00,,,0.00,11,LWC V2.00 B727,2013-05-17 12:10:00,
2013-05-17 06:15:00,42.2,20.2,30.09,SSE,164,1.0,5.0,41,0.00,,,0.00,12,LWC V2.00 B727,2013-05-17 12:15:00,
2013-05-17 06:20:00,42.4,20.4,30.09,SSE,165,3.0,3.0,41,0.00,,,0.00,16,LWC V2.00 B727,2013-05-17 12:20:00,
2013-05-17 06:25:00,42.5,20.5,30.09,SSE,161,0.0,1.0,41,0.00,,,0.00,18,LWC V2.00 B727,2013-05-17 12:25:00,
2013-05-17 06:30:00,42.8,21.3,30.09,SSE,163,2.0,3.0,42,0.00,,,0.00,19,LWC V2.00 B727,2013-05-17 12:30:00,
2013-05-17 06:35:00,43.2,21.7,30.09,SSE,162,0.0,1.0,42,0.00,,,0.00,23,LWC V2.00 B727,2013-05-17 12:35:00,
2013-05-17 06:40:00,43.6,23.7,30.09,SSE,161,0.0,1.0,45,0.00,,,0.00,35,LWC V2.00 B727,2013-05-17 12:40:00,
2013-05-17 06:45:00,44.0,24.0,30.09,SSE,161,0.0,1.0,45,0.00,,,0.00,49,LWC V2.00 B727,2013-05-17 12:45:00,
2013-05-17 06:50:00,44.4,24.9,30.09,SSE,161,0.0,0.0,46,0.00,,,0.00,63,LWC V2.00 B727,2013-05-17 12:50:00,
2013-05-17 06:55:00,45.0,25.5,30.09,SSE,161,0.0,0.0,46,0.00,,,0.00,81,LWC V2.00 B727,2013-05-17 12:55:00,
2013-05-17 07:00:00,45.6,26.5,30.09,SSE,161,0.0,0.0,47,0.00,,,0.00,100,LWC V2.00 B727,2013-05-17 13:00:00,
2013-05-17 07:05:00,46.3,28.2,30.09,SSE,161,0.0,0.0,49,0.00,,,0.00,121,LWC V2.00 B727,2013-05-17 13:05:00,
2013-05-17 07:10:00,47.1,29.9,30.09,SSE,161,0.0,0.0,51,0.00,,,0.00,142,LWC V2.00 B727,2013-05-17 13:10:00,
2013-05-17 07:15:00,48.1,28.8,30.09,SSE,161,0.0,1.0,47,0.00,,,0.00,165,LWC V2.00 B727,2013-05-17 13:15:00,
2013-05-17 07:20:00,49.2,30.4,30.09,SSE,161,0.0,0.0,48,0.00,,,0.00,190,LWC V2.00 B727,2013-05-17 13:20:00,
2013-05-17 07:25:00,50.4,28.8,30.09,SSE,161,0.0,0.0,43,0.00,,,0.00,209,LWC V2.00 B727,2013-05-17 13:25:00,
2013-05-17 07:30:00,51.6,29.8,30.09,SSE,161,0.0,1.0,43,0.00,,,0.00,232,LWC V2.00 B727,2013-05-17 13:30:00,
2013-05-17 07:35:00,52.9,31.6,30.09,SSE,160,0.0,1.0,44,0.00,,,0.00,255,LWC V2.00 B727,2013-05-17 13:35:00,
2013-05-17 07:40:00,54.1,31.5,30.09,SSE,161,0.0,1.0,42,0.00,,,0.00,272,LWC V2.00 B727,2013-05-17 13:40:00,
2013-05-17 07:45:00,55.4,30.2,30.09,SSE,161,1.0,1.0,38,0.00,,,0.00,292,LWC V2.00 B727,2013-05-17 13:45:00,
2013-05-17 07:50:00,56.5,30.5,30.09,SSE,161,0.0,1.0,37,0.00,,,0.00,311,LWC V2.00 B727,2013-05-17 13:50:00,
2013-05-17 07:55:00,57.7,29.5,30.09,SSE,160,0.0,1.0,34,0.00,,,0.00,330,LWC V2.00 B727,2013-05-17 13:55:00,
2013-05-17 08:00:00,59.0,30.7,30.08,SSE,161,0.0,0.0,34,0.00,,,0.00,346,LWC V2.00 B727,2013-05-17 14:00:00,
2013-05-17 08:05:00,59.8,29.9,30.08,SSE,161,0.0,1.0,32,0.00,,,0.00,366,LWC V2.00 B727,2013-05-17 14:05:00,
2013-05-17 08:10:00,60.7,29.1,30.08,SSE,160,0.0,0.0,30,0.00,,,0.00,383,LWC V2.00 B727,2013-05-17 14:10:00,
2013-05-17 08:15:00,61.4,28.0,30.08,SSE,160,0.0,3.0,28,0.00,,,0.00,403,LWC V2.00 B727,2013-05-17 14:15:00,
2013-05-17 08:20:00,62.0,27.6,30.08,SSE,168,2.0,3.0,27,0.00,,,0.00,422,LWC V2.00 B727,2013-05-17 14:20:00,
2013-05-17 08:25:00,62.5,29.0,30.08,West,270,0.0,3.0,28,0.00,,,0.00,441,LWC V2.00 B727,2013-05-17 14:25:00,
2013-05-17 08:30:00,63.0,28.5,30.07,NNW,336,0.0,3.0,27,0.00,,,0.00,461,LWC V2.00 B727,2013-05-17 14:30:00,
2013-05-17 08:35:00,63.5,27.1,30.07,SW,234,2.0,5.0,25,0.00,,,0.00,476,LWC V2.00 B727,2013-05-17 14:35:00,
2013-05-17 08:40:00,63.9,27.4,30.07,SSW,210,5.0,6.0,25,0.00,,,0.00,496,LWC V2.00 B727,2013-05-17 14:40:00,
2013-05-17 08:45:00,64.3,27.7,30.07,SW,225,4.0,6.0,25,0.00,,,0.00,506,LWC V2.00 B727,2013-05-17 14:45:00,
2013-05-17 08:46:00,64.3,27.7,30.07,SSW,197,2.0,6.0,25,0.00,,,0.00,517,LWC V2.00 B727,2013-05-17 14:46:00,
2013-05-17 08:51:00,64.4,26.8,30.07,SW,236,5.0,11.0,24,0.00,,,0.00,524,LWC V2.00 B727,2013-05-17 14:51:00,
2013-05-17 08:56:00,64.3,26.7,30.07,SW,218,3.0,5.0,24,0.00,,,0.00,515,LWC V2.00 B727,2013-05-17 14:56:00,
2013-05-17 09:01:00,64.4,27.8,30.07,SW,236,2.0,3.0,25,0.00,,,0.00,577,LWC V2.00 B727,2013-05-17 15:01:00,
2013-05-17 09:06:00,64.7,28.1,30.07,SSW,196,1.0,8.0,25,0.00,,,0.00,598,LWC V2.00 B727,2013-05-17 15:06:00,
2013-05-17 09:11:00,64.7,28.1,30.06,WSW,243,4.0,5.0,25,0.00,,,0.00,615,LWC V2.00 B727,2013-05-17 15:11:00,
2013-05-17 09:16:00,65.2,28.5,30.06,SW,219,0.0,3.0,25,0.00,,,0.00,631,LWC V2.00 B727,2013-05-17 15:16:00,
2013-05-17 09:21:00,65.6,27.8,30.06,SW,219,4.0,9.0,24,0.00,,,0.00,638,LWC V2.00 B727,2013-05-17 15:21:00,
2013-05-17 09:26:00,65.5,27.8,30.06,SSW,203,1.0,8.0,24,0.00,,,0.00,661,LWC V2.00 B727,2013-05-17 15:26:00,
2013-05-17 09:31:00,65.8,27.0,30.06,SW,218,7.0,7.0,23,0.00,,,0.00,679,LWC V2.00 B727,2013-05-17 15:31:00,
2013-05-17 09:36:00,65.8,25.9,30.06,WSW,248,6.0,9.0,22,0.00,,,0.00,700,LWC V2.00 B727,2013-05-17 15:36:00,
2013-05-17 09:41:00,65.9,27.1,30.06,SW,230,9.0,9.0,23,0.00,,,0.00,719,LWC V2.00 B727,2013-05-17 15:41:00,
2013-05-17 09:46:00,66.0,28.2,30.06,WSW,249,4.0,8.0,24,0.00,,,0.00,735,LWC V2.00 B727,2013-05-17 15:46:00,
2013-05-17 09:51:00,66.1,27.2,30.06,North,355,2.0,10.0,23,0.00,,,0.00,749,LWC V2.00 B727,2013-05-17 15:51:00,
2013-05-17 09:56:00,66.3,27.4,30.06,WSW,240,3.0,10.0,23,0.00,,,0.00,775,LWC V2.00 B727,2013-05-17 15:56:00,
2013-05-17 10:01:00,66.6,28.7,30.06,SW,222,9.0,9.0,24,0.00,,,0.00,754,LWC V2.00 B727,2013-05-17 16:01:00,
2013-05-17 10:06:00,66.6,27.6,30.06,SW,231,6.0,9.0,23,0.00,,,0.00,789,LWC V2.00 B727,2013-05-17 16:06:00,
2013-05-17 10:11:00,66.9,28.9,30.06,SW,220,3.0,9.0,24,0.00,,,0.00,816,LWC V2.00 B727,2013-05-17 16:11:00,
2013-05-17 10:16:00,67.3,26.0,30.05,SW,229,4.0,8.0,21,0.00,,,0.00,831,LWC V2.00 B727,2013-05-17 16:16:00,
2013-05-17 10:21:00,67.6,29.5,30.05,SW,219,5.0,5.0,24,0.00,,,0.00,849,LWC V2.00 B727,2013-05-17 16:21:00,
2013-05-17 10:26:00,68.1,28.9,30.05,North,351,6.0,8.0,23,0.00,,,0.00,875,LWC V2.00 B727,2013-05-17 16:26:00,
2013-05-17 10:31:00,68.4,29.2,30.05,WSW,254,4.0,4.0,23,0.00,,,0.00,921,LWC V2.00 B727,2013-05-17 16:31:00,
2013-05-17 10:36:00,68.8,30.5,30.04,NNE,13,5.0,9.0,24,0.00,,,0.00,886,LWC V2.00 B727,2013-05-17 16:36:00,
2013-05-17 10:41:00,68.9,29.6,30.05,North,5,0.0,5.0,23,0.00,,,0.00,882,LWC V2.00 B727,2013-05-17 16:41:00,
2013-05-17 10:46:00,68.8,27.3,30.05,North,9,4.0,6.0,21,0.00,,,0.00,552,LWC V2.00 B727,2013-05-17 16:46:00,
2013-05-17 10:52:00,68.4,29.2,30.04,NNW,340,7.0,7.0,23,0.00,,,0.00,401,LWC V2.00 B727,2013-05-17 16:52:00,
2013-05-17 10:57:00,67.6,28.5,30.05,NNW,345,4.0,6.0,23,0.00,,,0.00,568,LWC V2.00 B727,2013-05-17 16:57:00,
2013-05-17 11:02:00,67.7,30.6,30.05,NNW,344,3.0,5.0,25,0.00,,,0.00,928,LWC V2.00 B727,2013-05-17 17:02:00,
2013-05-17 11:07:00,67.8,27.6,30.04,WNW,297,0.0,2.0,22,0.00,,,0.00,438,LWC V2.00 B727,2013-05-17 17:07:00,
2013-05-17 11:12:00,67.5,27.3,30.05,East,82,2.0,4.0,22,0.00,,,0.00,471,LWC V2.00 B727,2013-05-17 17:12:00,
2013-05-17 11:17:00,67.1,28.1,30.04,NNE,18,2.0,5.0,23,0.00,,,0.00,457,LWC V2.00 B727,2013-05-17 17:17:00,
2013-05-17 11:22:00,66.7,26.7,30.05,North,351,3.0,3.0,22,0.00,,,0.00,497,LWC V2.00 B727,2013-05-17 17:22:00,
2013-05-17 11:27:00,66.8,27.8,30.05,North,5,4.0,8.0,23,0.00,,,0.00,631,LWC V2.00 B727,2013-05-17 17:27:00,
2013-05-17 11:32:00,67.0,28.0,30.05,SW,223,6.0,7.0,23,0.00,,,0.00,554,LWC V2.00 B727,2013-05-17 17:32:00,
2013-05-17 11:37:00,67.2,27.1,30.04,West,265,1.0,4.0,22,0.00,,,0.00,519,LWC V2.00 B727,2013-05-17 17:37:00,
2013-05-17 11:42:00,67.7,28.6,30.04,SW,214,0.0,7.0,23,0.00,,,0.00,619,LWC V2.00 B727,2013-05-17 17:42:00,
2013-05-17 11:47:00,68.3,26.9,30.04,SW,216,2.0,7.0,21,0.00,,,0.00,582,LWC V2.00 B727,2013-05-17 17:47:00,
2013-05-17 11:52:00,68.6,25.9,30.04,SW,232,6.0,7.0,20,0.00,,,0.00,592,LWC V2.00 B727,2013-05-17 17:52:00,
2013-05-17 11:57:00,68.6,25.9,30.04,SW,236,0.0,3.0,20,0.00,,,0.00,519,LWC V2.00 B727,2013-05-17 17:57:00,
2013-05-17 12:02:00,68.3,25.7,30.04,SSW,210,2.0,2.0,20,0.00,,,0.00,617,LWC V2.00 B727,2013-05-17 18:02:00,
2013-05-17 12:07:00,68.6,27.1,30.03,SSW,210,3.0,3.0,21,0.00,,,0.00,584,LWC V2.00 B727,2013-05-17 18:07:00,
2013-05-17 12:12:00,68.8,28.4,30.03,NNW,336,3.0,3.0,22,0.00,,,0.00,478,LWC V2.00 B727,2013-05-17 18:12:00,
2013-05-17 12:17:00,69.0,29.7,30.03,NNE,28,0.0,3.0,23,0.00,,,0.00,582,LWC V2.00 B727,2013-05-17 18:17:00,
2013-05-17 12:22:00,69.6,27.9,30.03,SW,229,2.0,5.0,21,0.00,,,0.00,1288,LWC V2.00 B727,2013-05-17 18:22:00,
2013-05-17 12:27:00,70.3,27.3,30.02,ESE,113,1.0,3.0,20,0.00,,,0.00,909,LWC V2.00 B727,2013-05-17 18:27:00,
2013-05-17 12:32:00,71.1,28.0,30.02,South,186,7.0,9.0,20,0.00,,,0.00,754,LWC V2.00 B727,2013-05-17 18:32:00,
2013-05-17 12:37:00,71.5,27.1,30.01,WSW,252,10.0,11.0,19,0.00,,,0.00,809,LWC V2.00 B727,2013-05-17 18:37:00,
2013-05-17 12:42:00,71.9,28.6,30.02,WSW,240,3.0,9.0,20,0.00,,,0.00,729,LWC V2.00 B727,2013-05-17 18:42:00,
2013-05-17 12:47:00,72.2,28.9,30.02,SSW,200,3.0,6.0,20,0.00,,,0.00,830,LWC V2.00 B727,2013-05-17 18:47:00,
2013-05-17 12:52:00,72.7,28.1,30.01,SW,227,1.0,10.0,19,0.00,,,0.00,861,LWC V2.00 B727,2013-05-17 18:52:00,
2013-05-17 12:57:00,73.7,28.9,30.01,North,10,5.0,7.0,19,0.00,,,0.00,714,LWC V2.00 B727,2013-05-17 18:57:00,
2013-05-17 13:02:00,73.8,29.0,30.01,SSW,195,5.0,11.0,19,0.00,,,0.00,921,LWC V2.00 B727,2013-05-17 19:02:00,
2013-05-17 13:07:00,73.6,26.1,30.01,SSW,203,7.0,14.0,17,0.00,,,0.00,905,LWC V2.00 B727,2013-05-17 19:07:00,
2013-05-17 13:12:00,73.6,27.5,30.00,South,173,2.0,14.0,18,0.00,,,0.00,1278,LWC V2.00 B727,2013-05-17 19:12:00,
2013-05-17 13:17:00,73.9,30.3,30.01,SSW,213,1.0,6.0,20,0.00,,,0.00,1037,LWC V2.00 B727,2013-05-17 19:17:00,
2013-05-17 13:22:00,74.8,29.8,30.00,North,355,6.0,9.0,19,0.00,,,0.00,823,LWC V2.00 B727,2013-05-17 19:22:00,
2013-05-17 13:27:00,75.7,29.2,30.00,SSW,192,6.0,11.0,18,0.00,,,0.00,1095,LWC V2.00 B727,2013-05-17 19:27:00,
2013-05-17 13:32:00,76.7,28.6,29.99,WSW,258,0.0,1.0,17,0.00,,,0.00,998,LWC V2.00 B727,2013-05-17 19:32:00,
2013-05-17 13:37:00,76.3,26.8,29.99,WSW,252,6.0,10.0,16,0.00,,,0.00,425,LWC V2.00 B727,2013-05-17 19:37:00,
2013-05-17 13:42:00,74.9,27.1,29.99,South,190,6.0,11.0,17,0.00,,,0.00,779,LWC V2.00 B727,2013-05-17 19:42:00,
2013-05-17 13:47:00,74.6,26.9,29.99,WSW,240,12.0,12.0,17,0.00,,,0.00,872,LWC V2.00 B727,2013-05-17 19:47:00,
2013-05-17 13:52:00,74.9,28.5,29.99,SW,230,5.0,16.0,18,0.00,,,0.00,719,LWC V2.00 B727,2013-05-17 19:52:00,
2013-05-17 13:57:00,75.0,24.2,29.99,WSW,246,8.0,12.0,15,0.00,,,0.00,888,LWC V2.00 B727,2013-05-17 19:57:00,
2013-05-17 14:02:00,75.7,29.2,29.98,SSE,168,3.0,6.0,18,0.00,,,0.00,981,LWC V2.00 B727,2013-05-17 20:02:00,
2013-05-17 14:07:00,76.3,28.3,29.98,SW,215,12.0,12.0,17,0.00,,,0.00,1055,LWC V2.00 B727,2013-05-17 20:07:00,
2013-05-17 14:12:00,76.2,26.7,29.98,NNE,20,3.0,11.0,16,0.00,,,0.00,733,LWC V2.00 B727,2013-05-17 20:12:00,
2013-05-17 14:17:00,75.8,24.9,29.98,SW,215,5.0,8.0,15,0.00,,,0.00,475,LWC V2.00 B727,2013-05-17 20:17:00,
2013-05-17 14:22:00,75.2,27.4,29.98,WNW,288,0.0,9.0,17,0.00,,,0.00,538,LWC V2.00 B727,2013-05-17 20:22:00,
2013-05-17 14:27:00,74.8,27.1,29.98,WSW,250,6.0,8.0,17,0.00,,,0.00,649,LWC V2.00 B727,2013-05-17 20:27:00,
2013-05-17 14:32:00,74.4,25.3,29.98,SSW,198,4.0,11.0,16,0.00,,,0.00,554,LWC V2.00 B727,2013-05-17 20:32:00,
2013-05-17 14:37:00,73.8,27.6,29.99,SSW,200,2.0,6.0,18,0.00,,,0.00,578,LWC V2.00 B727,2013-05-17 20:37:00,
2013-05-17 14:42:00,74.2,26.6,29.98,South,170,3.0,6.0,17,0.00,,,0.00,531,LWC V2.00 B727,2013-05-17 20:42:00,
2013-05-17 14:47:00,74.2,26.6,29.98,SW,216,2.0,5.0,17,0.00,,,0.00,499,LWC V2.00 B727,2013-05-17 20:47:00,
2013-05-17 14:52:00,73.6,24.6,29.98,South,186,3.0,9.0,16,0.00,,,0.00,480,LWC V2.00 B727,2013-05-17 20:52:00,
2013-05-17 14:57:00,73.2,25.8,29.98,SSW,196,3.0,12.0,17,0.00,,,0.00,494,LWC V2.00 B727,2013-05-17 20:57:00,
2013-05-17 15:02:00,73.0,24.2,29.98,WSW,248,6.0,13.0,16,0.00,,,0.00,777,LWC V2.00 B727,2013-05-17 21:02:00,
2013-05-17 15:07:00,73.5,24.6,29.98,South,190,0.0,11.0,16,0.00,,,0.00,872,LWC V2.00 B727,2013-05-17 21:07:00,
2013-05-17 15:12:00,74.3,26.7,29.97,WSW,241,4.0,7.0,17,0.00,,,0.00,619,LWC V2.00 B727,2013-05-17 21:12:00,
2013-05-17 15:17:00,75.2,25.9,29.97,SSW,207,7.0,12.0,16,0.00,,,0.00,1016,LWC V2.00 B727,2013-05-17 21:17:00,
2013-05-17 15:22:00,75.9,26.5,29.97,SSW,205,6.0,12.0,16,0.00,,,0.00,935,LWC V2.00 B727,2013-05-17 21:22:00,
2013-05-17 15:27:00,75.7,27.8,29.97,NW,309,3.0,4.0,17,0.00,,,0.00,772,LWC V2.00 B727,2013-05-17 21:27:00,
2013-05-17 15:32:00,75.8,27.9,29.97,West,280,3.0,6.0,17,0.00,,,0.00,731,LWC V2.00 B727,2013-05-17 21:32:00,
2013-05-17 15:37:00,75.7,26.3,29.96,SSW,202,7.0,14.0,16,0.00,,,0.00,884,LWC V2.00 B727,2013-05-17 21:37:00,
2013-05-17 15:42:00,75.6,26.2,29.96,WSW,247,4.0,19.0,16,0.00,,,0.00,868,LWC V2.00 B727,2013-05-17 21:42:00,
2013-05-17 15:47:00,76.3,28.3,29.95,SW,226,0.0,7.0,17,0.00,,,0.00,846,LWC V2.00 B727,2013-05-17 21:47:00,
2013-05-17 15:52:00,76.9,25.7,29.96,WSW,238,4.0,11.0,15,0.00,,,0.00,828,LWC V2.00 B727,2013-05-17 21:52:00,
2013-05-17 15:57:00,76.1,25.1,29.96,SSW,203,13.0,16.0,15,0.00,,,0.00,802,LWC V2.00 B727,2013-05-17 21:57:00,
2013-05-17 16:02:00,75.7,26.3,29.95,NE,48,2.0,5.0,16,0.00,,,0.00,784,LWC V2.00 B727,2013-05-17 22:02:00,
2013-05-17 16:07:00,76.3,26.8,29.95,SSW,213,4.0,6.0,16,0.00,,,0.00,770,LWC V2.00 B727,2013-05-17 22:07:00,
2013-05-17 16:12:00,76.7,27.1,29.95,SW,233,2.0,12.0,16,0.00,,,0.00,754,LWC V2.00 B727,2013-05-17 22:12:00,
2013-05-17 16:17:00,76.5,25.4,29.95,SW,225,5.0,12.0,15,0.00,,,0.00,735,LWC V2.00 B727,2013-05-17 22:17:00,
2013-05-17 16:22:00,76.0,26.6,29.95,SSW,192,9.0,10.0,16,0.00,,,0.00,717,LWC V2.00 B727,2013-05-17 22:22:00,
2013-05-17 16:27:00,75.9,26.5,29.96,SW,233,6.0,19.0,16,0.00,,,0.00,701,LWC V2.00 B727,2013-05-17 22:27:00,
2013-05-17 16:32:00,75.7,26.3,29.95,SW,225,3.0,7.0,16,0.00,,,0.00,682,LWC V2.00 B727,2013-05-17 22:32:00,
2013-05-17 16:37:00,75.7,27.8,29.95,South,191,13.0,14.0,17,0.00,,,0.00,668,LWC V2.00 B727,2013-05-17 22:37:00,
2013-05-17 16:42:00,75.2,27.4,29.95,SSW,196,7.0,13.0,17,0.00,,,0.00,650,LWC V2.00 B727,2013-05-17 22:42:00,
2013-05-17 16:47:00,75.2,28.8,29.95,WSW,250,9.0,12.0,18,0.00,,,0.00,633,LWC V2.00 B727,2013-05-17 22:47:00,
2013-05-17 16:52:00,75.3,30.2,29.95,South,174,3.0,4.0,19,0.00,,,0.00,615,LWC V2.00 B727,2013-05-17 22:52:00,
2013-05-17 16:57:00,75.4,27.5,29.95,South,180,5.0,11.0,17,0.00,,,0.00,596,LWC V2.00 B727,2013-05-17 22:57:00,
2013-05-17 17:02:00,74.8,27.1,29.95,SSW,202,7.0,17.0,17,0.00,,,0.00,582,LWC V2.00 B727,2013-05-17 23:02:00,
2013-05-17 17:07:00,74.4,28.1,29.94,SW,217,4.0,6.0,18,0.00,,,0.00,564,LWC V2.00 B727,2013-05-17 23:07:00,
2013-05-17 17:12:00,74.5,26.8,29.95,SW,236,11.0,13.0,17,0.00,,,0.00,545,LWC V2.00 B727,2013-05-17 23:12:00,
2013-05-17 17:17:00,74.3,26.7,29.95,SSW,213,4.0,10.0,17,0.00,,,0.00,527,LWC V2.00 B727,2013-05-17 23:17:00,
2013-05-17 17:22:00,74.3,26.7,29.94,WSW,248,12.0,12.0,17,0.00,,,0.00,510,LWC V2.00 B727,2013-05-17 23:22:00,
2013-05-17 17:27:00,74.4,26.7,29.94,South,179,7.0,15.0,17,0.00,,,0.00,492,LWC V2.00 B727,2013-05-17 23:27:00,
2013-05-17 17:32:00,73.9,27.7,29.94,SW,232,9.0,10.0,18,0.00,,,0.00,471,LWC V2.00 B727,2013-05-17 23:32:00,
2013-05-17 17:37:00,73.8,26.3,29.94,WSW,242,3.0,10.0,17,0.00,,,0.00,457,LWC V2.00 B727,2013-05-17 23:37:00,
2013-05-17 17:42:00,74.1,25.0,29.94,West,266,4.0,9.0,16,0.00,,,0.00,439,LWC V2.00 B727,2013-05-17 23:42:00,
2013-05-17 17:47:00,74.1,25.0,29.94,WSW,246,10.0,12.0,16,0.00,,,0.00,420,LWC V2.00 B727,2013-05-17 23:47:00,
2013-05-17 17:52:00,74.0,25.0,29.94,South,179,5.0,11.0,16,0.00,,,0.00,403,LWC V2.00 B727,2013-05-17 23:52:00,
2013-05-17 17:57:00,73.4,24.5,29.93,SW,225,7.0,14.0,16,0.00,,,0.00,44,LWC V2.00 B727,2013-05-17 23:57:00,
2013-05-17 18:02:00,73.0,24.2,29.93,WSW,241,8.0,9.0,16,0.00,,,0.00,46,LWC V2.00 B727,2013-05-18 00:02:00,
2013-05-17 18:07:00,72.8,24.0,29.93,WSW,239,13.0,18.0,16,0.00,,,0.00,46,LWC V2.00 B727,2013-05-18 00:07:00,
2013-05-17 18:12:00,72.1,24.9,29.93,SW,228,5.0,6.0,17,0.00,,,0.00,46,LWC V2.00 B727,2013-05-18 00:12:00,
2013-05-17 18:17:00,71.9,23.3,29.93,SSW,205,2.0,7.0,16,0.00,,,0.00,46,LWC V2.00 B727,2013-05-18 00:17:00,
2013-05-17 18:22:00,71.6,24.5,29.93,SSW,209,6.0,8.0,17,0.00,,,0.00,46,LWC V2.00 B727,2013-05-18 00:22:00,
2013-05-17 18:27:00,71.4,22.9,29.93,South,176,4.0,7.0,16,0.00,,,0.00,47,LWC V2.00 B727,2013-05-18 00:27:00,
2013-05-17 18:32:00,71.3,24.2,29.93,West,262,10.0,11.0,17,0.00,,,0.00,47,LWC V2.00 B727,2013-05-18 00:32:00,
2013-05-17 18:37:00,71.0,24.0,29.93,SW,225,3.0,8.0,17,0.00,,,0.00,47,LWC V2.00 B727,2013-05-18 00:37:00,
2013-05-17 18:42:00,70.8,25.2,29.93,WSW,242,5.0,6.0,18,0.00,,,0.00,40,LWC V2.00 B727,2013-05-18 00:42:00,
2013-05-17 18:47:00,70.6,25.0,29.93,WSW,239,9.0,10.0,18,0.00,,,0.00,44,LWC V2.00 B727,2013-05-18 00:47:00,
2013-05-17 18:52:00,70.4,23.5,29.93,SW,219,4.0,7.0,17,0.00,,,0.00,42,LWC V2.00 B727,2013-05-18 00:52:00,
2013-05-17 18:57:00,70.2,23.3,29.93,SSE,168,4.0,7.0,17,0.00,,,0.00,40,LWC V2.00 B727,2013-05-18 00:57:00,
2013-05-17 19:02:00,70.0,23.2,29.93,South,182,5.0,10.0,17,0.00,,,0.00,37,LWC V2.00 B727,2013-05-18 01:02:00,
2013-05-17 19:07:00,69.9,24.5,29.93,SW,225,2.0,7.0,18,0.00,,,0.00,37,LWC V2.00 B727,2013-05-18 01:07:00,
2013-05-17 19:12:00,69.6,22.9,29.93,SW,234,3.0,7.0,17,0.00,,,0.00,33,LWC V2.00 B727,2013-05-18 01:12:00,
2013-05-17 19:17:00,69.5,24.1,29.93,SW,219,4.0,8.0,18,0.00,,,0.00,30,LWC V2.00 B727,2013-05-18 01:17:00,
2013-05-17 19:22:00,69.2,23.9,29.93,SSW,208,3.0,6.0,18,0.00,,,0.00,26,LWC V2.00 B727,2013-05-18 01:22:00,
2013-05-17 19:27:00,68.9,23.7,29.93,West,263,5.0,9.0,18,0.00,,,0.00,25,LWC V2.00 B727,2013-05-18 01:27:00,
2013-05-17 19:32:00,68.7,23.5,29.93,SSW,196,5.0,7.0,18,0.00,,,0.00,19,LWC V2.00 B727,2013-05-18 01:32:00,
2013-05-17 19:37:00,68.3,23.2,29.93,SW,234,8.0,9.0,18,0.00,,,0.00,16,LWC V2.00 B727,2013-05-18 01:37:00,
2013-05-17 19:42:00,68.0,22.9,29.94,WSW,240,5.0,7.0,18,0.00,,,0.00,12,LWC V2.00 B727,2013-05-18 01:42:00,
2013-05-17 19:47:00,67.5,23.8,29.94,SSW,193,2.0,5.0,19,0.00,,,0.00,11,LWC V2.00 B727,2013-05-18 01:47:00,
2013-05-17 19:52:00,67.2,22.3,29.94,SSW,194,5.0,13.0,18,0.00,,,0.00,7,LWC V2.00 B727,2013-05-18 01:52:00,
2013-05-17 19:57:00,66.9,23.3,29.94,South,188,2.0,5.0,19,0.00,,,0.00,5,LWC V2.00 B727,2013-05-18 01:57:00,
2013-05-17 20:02:00,66.4,22.9,29.94,SSW,205,2.0,3.0,19,0.00,,,0.00,0,LWC V2.00 B727,2013-05-18 02:02:00,
2013-05-17 20:07:00,65.9,23.7,29.94,SSW,205,0.0,1.0,20,0.00,,,0.00,0,LWC V2.00 B727,2013-05-18 02:07:00,
2013-05-17 20:12:00,65.3,23.2,29.94,SSW,205,1.0,1.0,20,0.00,,,0.00,0,LWC V2.00 B727,2013-05-18 02:12:00,
2013-05-17 20:17:00,64.3,23.5,29.95,SSW,203,0.0,1.0,21,0.00,,,0.00,0,LWC V2.00 B727,2013-05-18 02:17:00,
2013-05-17 20:22:00,63.3,22.7,29.95,South,191,2.0,2.0,21,0.00,,,0.00,0,LWC V2.00 B727,2013-05-18 02:22:00,
2013-05-17 20:27:00,62.7,23.3,29.95,South,186,2.0,2.0,22,0.00,,,0.00,0,LWC V2.00 B727,2013-05-18 02:27:00,
2013-05-17 20:32:00,62.0,23.8,29.95,South,180,0.0,3.0,23,0.00,,,0.00,0,LWC V2.00 B727,2013-05-18 02:32:00,
2013-05-17 20:37:00,61.3,23.2,29.95,SSE,167,0.0,3.0,23,0.00,,,0.00,0,LWC V2.00 B727,2013-05-18 02:37:00,
2013-05-17 20:42:00,60.5,22.5,29.95,SSE,167,0.0,2.0,23,0.00,,,0.00,0,LWC V2.00 B727,2013-05-18 02:42:00,
2013-05-17 20:47:00,60.0,23.1,29.96,South,170,1.0,1.0,24,0.00,,,0.00,0,LWC V2.00 B727,2013-05-18 02:47:00,
2013-05-17 20:52:00,59.2,23.4,29.96,South,170,1.0,2.0,25,0.00,,,0.00,0,LWC V2.00 B727,2013-05-18 02:52:00,
2013-05-17 20:57:00,58.8,23.1,29.97,South,170,3.0,3.0,25,0.00,,,0.00,0,LWC V2.00 B727,2013-05-18 02:57:00,
2013-05-17 21:02:00,58.4,22.7,29.97,SSE,163,3.0,4.0,25,0.00,,,0.00,0,LWC V2.00 B727,2013-05-18 03:02:00,
2013-05-17 21:07:00,58.6,23.8,29.97,South,182,3.0,3.0,26,0.00,,,0.00,0,LWC V2.00 B727,2013-05-18 03:07:00,
2013-05-17 21:12:00,58.4,23.7,29.97,South,176,4.0,4.0,26,0.00,,,0.00,0,LWC V2.00 B727,2013-05-18 03:12:00,
2013-05-17 21:17:00,59.0,23.2,29.97,South,173,1.0,6.0,25,0.00,,,0.00,0,LWC V2.00 B727,2013-05-18 03:17:00,
2013-05-17 21:22:00,61.3,24.2,29.98,South,187,5.0,7.0,24,0.00,,,0.00,0,LWC V2.00 B727,2013-05-18 03:22:00,
2013-05-17 21:27:00,63.0,24.6,29.98,South,184,2.0,8.0,23,0.00,,,0.00,0,LWC V2.00 B727,2013-05-18 03:27:00,
2013-05-17 21:32:00,63.7,25.2,29.98,South,191,0.0,2.0,23,0.00,,,0.00,0,LWC V2.00 B727,2013-05-18 03:32:00,
2013-05-17 21:37:00,63.7,25.2,29.98,South,191,0.0,3.0,23,0.00,,,0.00,0,LWC V2.00 B727,2013-05-18 03:37:00,
2013-05-17 21:42:00,63.6,26.1,29.98,South,191,0.0,1.0,24,0.00,,,0.00,0,LWC V2.00 B727,2013-05-18 03:42:00,
2013-05-17 21:47:00,63.5,25.0,29.99,South,191,0.0,1.0,23,0.00,,,0.00,0,LWC V2.00 B727,2013-05-18 03:47:00,
2013-05-17 21:52:00,63.2,24.8,29.99,South,191,0.0,0.0,23,0.00,,,0.00,0,LWC V2.00 B727,2013-05-18 03:52:00,
2013-05-17 21:57:00,63.0,24.6,29.99,South,191,1.0,1.0,23,0.00,,,0.00,0,LWC V2.00 B727,2013-05-18 03:57:00,
2013-05-17 22:01:00,62.7,25.4,30.00,South,191,0.0,1.0,24,0.00,,,0.00,0,LWC V2.00 B727,2013-05-18 04:01:00,
2013-05-17 22:06:00,62.4,27.1,30.00,South,190,0.0,1.0,26,0.00,,,0.00,0,LWC V2.00 B727,2013-05-18 04:06:00,
2013-05-17 22:11:00,62.2,26.0,30.00,South,183,0.0,3.0,25,0.00,,,0.00,0,LWC V2.00 B727,2013-05-18 04:11:00,
2013-05-17 22:16:00,62.1,27.7,30.01,WSW,248,6.0,14.0,27,0.00,,,0.00,0,LWC V2.00 B727,2013-05-18 04:16:00,
2013-05-17 22:21:00,62.8,27.4,30.01,SW,221,0.0,10.0,26,0.00,,,0.00,0,LWC V2.00 B727,2013-05-18 04:21:00,
2013-05-17 22:26:00,63.1,27.7,30.00,ENE,71,1.0,3.0,26,0.00,,,0.00,0,LWC V2.00 B727,2013-05-18 04:26:00,
2013-05-17 22:31:00,63.0,28.5,30.00,SE,138,2.0,3.0,27,0.00,,,0.00,0,LWC V2.00 B727,2013-05-18 04:31:00,
2013-05-17 22:36:00,63.0,27.6,29.99,SSE,156,1.0,3.0,26,0.00,,,0.00,0,LWC V2.00 B727,2013-05-18 04:36:00,
2013-05-17 22:41:00,63.1,28.6,29.99,South,169,0.0,1.0,27,0.00,,,0.00,0,LWC V2.00 B727,2013-05-18 04:41:00,
2013-05-17 22:46:00,62.9,28.4,29.98,SSE,158,2.0,5.0,27,0.00,,,0.00,0,LWC V2.00 B727,2013-05-18 04:46:00,
2013-05-17 22:51:00,62.5,29.0,29.98,SSE,160,0.0,0.0,28,0.00,,,0.00,0,LWC V2.00 B727,2013-05-18 04:51:00,
2013-05-17 22:56:00,62.1,28.6,29.98,SSE,161,1.0,1.0,28,0.00,,,0.00,0,LWC V2.00 B727,2013-05-18 04:56:00,
2013-05-17 23:01:00,62.0,27.6,29.98,South,179,1.0,5.0,27,0.00,,,0.00,0,LWC V2.00 B727,2013-05-18 05:01:00,
2013-05-17 23:06:00,62.8,28.3,29.98,SW,219,13.0,20.0,27,0.00,,,0.00,0,LWC V2.00 B727,2013-05-18 05:06:00,
2013-05-17 23:11:00,63.8,28.3,29.98,SSE,164,5.0,19.0,26,0.00,,,0.00,0,LWC V2.00 B727,2013-05-18 05:11:00,
2013-05-17 23:16:00,64.4,27.8,29.99,SSW,206,5.0,13.0,25,0.00,,,0.00,0,LWC V2.00 B727,2013-05-18 05:16:00,
2013-05-17 23:21:00,64.5,27.9,29.99,SSW,209,5.0,10.0,25,0.00,,,0.00,0,LWC V2.00 B727,2013-05-18 05:21:00,
2013-05-17 23:26:00,64.5,27.9,30.00,SW,223,3.0,7.0,25,0.00,,,0.00,0,LWC V2.00 B727,2013-05-18 05:26:00,
2013-05-17 23:31:00,64.3,27.7,30.00,SW,217,0.0,3.0,25,0.00,,,0.00,0,LWC V2.00 B727,2013-05-18 05:31:00,
2013-05-17 23:36:00,64.1,23.4,30.00,SW,217,2.0,4.0,21,0.00,,,0.00,0,LWC V2.00 B727,2013-05-18 05:36:00,
2013-05-17 23:41:00,63.8,24.2,30.00,SW,220,2.0,4.0,22,0.00,,,0.00,0,LWC V2.00 B727,2013-05-18 05:41:00,
2013-05-17 23:46:00,63.5,24.0,30.00,WSW,252,6.0,6.0,22,0.00,,,0.00,0,LWC V2.00 B727,2013-05-18 05:46:00,
2013-05-17 23:51:00,63.1,20.2,29.99,SW,226,2.0,8.0,19,0.00,,,0.00,0,LWC V2.00 B727,2013-05-18 05:51:00,
2013-05-17 23:56:00,62.8,19.9,30.00,SW,232,6.0,9.0,19,0.00,,,0.00,0,LWC V2.00 B727,2013-05-18 05:56:00,